User: anonymous   Login
Location: Chagrin Falls Park
(41.4139°N, 81.3865°W)
Time: 22:47:21
(UTC+00:00)
Language:

STARLINK-2720 - Orbit

View from above orbital plane
View from above orbital plane
View from above satellite
View from above satellite

Ground track
Ground track

The orbit data is extracted from the following two-line orbital elements,

1 48653C 21044R   21296.80675382  .00006707  00000-0  44930-3 0  2969
2 48653  53.0539  94.7830 0001790  78.4099  63.0599 15.06395214    17
Epoch (UTC): 23 October 2021 19:21:43
Eccentricity: 0.0001790
inclination: 53.0539°
perigee height: 546 km
apogee height: 548 km
right ascension of ascending node: 94.7830°
argument of perigee: 78.4099°
revolutions per day: 15.06395214
mean anomaly at epoch: 63.0599°
orbit number at epoch: 1

The dashed part of the orbit path shows where the satellite is in the earth's shadow,  

DLR